Lander, WY

3:26 AM MDT on July 25, 2017 (GMT -0600)
Hunt

Weather History for KLND - May, 2013

Change the Weather History Date:

Sunday, May 19, 2013

  Actual Average Record
Temperature  
Mean Temperature 48 °F 54 °F  
Max Temperature 53 °F 68 °F 88 °F (1954)
Min Temperature 43 °F 41 °F 24 °F (1950)
Degree Days  
Heating Degree Days 17 11  
Month to date heating degree days 209 259  
Since 1 July heating degree days 7269 7513  
Cooling Degree Days 0 0  
Month to date cooling degree days 9 0  
Year to date cooling degree days 9 0  
Moisture  
Dew Point 42 °F    
Average Humidity 82    
Maximum Humidity 92    
Minimum Humidity 71    
Precipitation  
Precipitation 0.83 in 0.07 in 2.52 in (2011)
Month to date precipitation 1.79 1.37  
Year to date precipitation 7.33 5.39  
Snow  
Snow 0.00 in 0.10 in - ()
Month to date snowfall 10.5 4.2  
Since 1 July snowfall 111.1 90.7  
Snow Depth 0.00 in    
Sea Level Pressure  
Sea Level Pressure 29.94 in    
Wind  
Wind Speed 5 mph (NW)    
Max Wind Speed 15 mph    
Max Gust Speed 18 mph    
Visibility 5 miles    
Events Rain    
T = Trace of Precipitation, MM = Missing Value Source: NWS Daily Summary

Daily Weather History Graph

Daily Weather History Graph

Search for Another Location

Airport or City:

Trip Planner

Search our weather history database for the weather conditions in past years. The results will help you decide how hot, cold, wet, or windy it might be!

Date:

Astronomy

May. 19, 2013 Rise Set
Actual Time 5:48 AM MDT 8:35 PM MDT
Civil Twilight 5:15 AM MDT 9:08 PM MDT
Nautical Twilight 4:33 AM MDT 9:50 PM MDT
Astronomical Twilight 3:45 AM MDT 10:38 PM MDT
Moon 2:35 PM MDT (5/19) 2:21 AM MDT (5/19)
Length of Visible Light 15h 53m
Length of Day
14h 47m
Waxing Gibbous, 66% of the Moon is Illuminated
May 19
Waxing Gibbous
May 24
Full
May 31
Last Quarter
Jun 8
New
Jun 16
First Quarter

Hourly Weather History & Observations

Time (MDT) Temp. Windchill Dew Point Humidity Pressure Visibility Wind Dir Wind Speed Gust Speed Precip Events Conditions
12:03 AM 48.2 °F - 42.8 °F 82% 29.95 in 10.0 mi ESE 3.5 mph - N/A   Overcast
12:53 AM 46.0 °F - 43.0 °F 89% 29.83 in 10.0 mi Calm Calm - N/A   Mostly Cloudy
1:53 AM 46.9 °F - 42.1 °F 83% 29.83 in 10.0 mi Calm Calm - N/A   Overcast
2:53 AM 46.0 °F - 42.1 °F 86% 29.82 in 10.0 mi Calm Calm - N/A   Clear
3:53 AM 46.0 °F - 42.1 °F 86% 29.83 in 10.0 mi Calm Calm - N/A   Overcast
4:53 AM 45.0 °F - 41.0 °F 86% 29.84 in 10.0 mi Calm Calm - N/A   Mostly Cloudy
5:53 AM 45.0 °F - 42.1 °F 90% 29.84 in 10.0 mi Calm Calm - N/A   Overcast
6:40 AM 44.6 °F 42.2 °F 42.8 °F 93% 29.94 in 9.0 mi ENE 4.6 mph - 0.00 in Rain Light Rain
6:53 AM 44.1 °F - 43.0 °F 96% 29.86 in 4.0 mi Calm Calm - 0.01 in Rain Light Rain
7:18 AM 42.8 °F 39.3 °F 42.8 °F 100% 29.94 in 4.0 mi SE 5.8 mph - 0.02 in Rain Light Rain
7:53 AM 44.1 °F 40.8 °F 42.1 °F 93% 29.88 in 4.0 mi SSE 5.8 mph - 0.06 in Rain Light Rain
8:53 AM 45.0 °F 42.6 °F 42.1 °F 90% 29.89 in 7.0 mi ESE 4.6 mph - 0.03 in Rain Light Rain
9:53 AM 45.0 °F 40.6 °F 41.0 °F 86% 29.91 in 3.0 mi NNE 8.1 mph - 0.03 in Rain Light Rain
10:38 AM 44.6 °F 41.4 °F 39.2 °F 81% 29.97 in 2.0 mi West 5.8 mph - 0.04 in Rain Light Rain
10:53 AM 46.0 °F 41.4 °F 41.0 °F 83% 29.91 in 4.0 mi West 9.2 mph - 0.06 in Rain Light Rain
11:16 AM 46.4 °F 42.9 °F 42.8 °F 87% 29.97 in 4.0 mi WNW 6.9 mph - 0.01 in Rain Light Rain
11:45 AM 46.4 °F 41.9 °F 42.8 °F 87% 29.97 in 2.5 mi North 9.2 mph - 0.05 in Rain Light Rain
11:53 AM 45.0 °F 39.3 °F 41.0 °F 86% 29.91 in 3.0 mi NNW 11.5 mph - 0.06 in Rain Light Rain
12:08 PM 44.6 °F 38.4 °F 39.2 °F 81% 29.97 in 2.5 mi NNW 12.7 mph - 0.03 in Rain Rain
12:23 PM 44.6 °F 39.2 °F 41.0 °F 87% 29.97 in 3.0 mi NNW 10.4 mph - 0.06 in Rain Light Rain
12:53 PM 44.1 °F 38.1 °F 41.0 °F 89% 29.93 in 3.0 mi NNW 11.5 mph - 0.10 in Rain Light Rain
1:06 PM 44.6 °F 39.2 °F 41.0 °F 87% 29.97 in 2.5 mi NNW 10.4 mph - 0.02 in Rain Light Rain
1:53 PM 46.0 °F 43.1 °F 42.1 °F 86% 29.90 in 2.5 mi WSW 5.8 mph - 0.11 in Rain Light Rain
2:03 PM 46.4 °F 43.5 °F 42.8 °F 87% 29.96 in 3.0 mi WSW 5.8 mph - 0.01 in Rain Light Rain
2:53 PM 48.0 °F - 41.0 °F 77% 29.89 in 10.0 mi South 4.6 mph - 0.02 in   Overcast
3:53 PM 51.1 °F - 43.0 °F 74% 29.88 in 10.0 mi Calm Calm - N/A   Overcast
4:53 PM 52.0 °F - 42.1 °F 69% 29.87 in 10.0 mi East 5.8 mph - 0.00 in   Overcast
5:53 PM 48.9 °F - 44.1 °F 83% 29.90 in 7.0 mi East 5.8 mph - 0.02 in Rain Light Rain
6:37 PM 48.2 °F - 44.6 °F 87% 29.97 in 1.8 mi NW 10.4 mph - 0.01 in Rain Rain
6:53 PM 46.9 °F - 44.1 °F 90% 29.93 in 1.8 mi NW 6.9 mph - 0.06 in Rain Rain
6:59 PM 46.4 °F 44.3 °F 42.8 °F 87% 29.98 in 3.0 mi NW 4.6 mph - 0.01 in Rain Light Rain
7:14 PM 46.4 °F 45.2 °F 42.8 °F 87% 29.98 in 1.8 mi NW 3.5 mph - 0.03 in Rain Light Rain
7:29 PM 46.4 °F - 41.0 °F 81% 29.99 in 3.0 mi Calm Calm - 0.06 in Rain Light Rain
7:53 PM 46.0 °F 43.9 °F 42.1 °F 86% 29.95 in 8.0 mi WSW 4.6 mph - 0.06 in Rain Light Rain
8:30 PM 46.4 °F - 42.8 °F 87% 30.00 in 10.0 mi Calm Calm - 0.00 in   Overcast
8:53 PM 46.0 °F 43.9 °F 42.1 °F 86% 29.96 in 8.0 mi East 4.6 mph - 0.00 in Rain Light Rain
9:16 PM 44.6 °F 40.7 °F 42.8 °F 93% 30.02 in 7.0 mi ENE 6.9 mph - 0.00 in Rain Light Rain
9:29 PM 44.6 °F - 42.8 °F 93% 30.02 in 2.5 mi Calm Calm - 0.03 in Rain Light Rain
9:41 PM 44.6 °F - 44.6 °F 100% 30.03 in 2.5 mi Calm Calm - 0.06 in Rain Light Rain
9:46 PM 44.6 °F - 44.6 °F 100% 30.03 in 3.0 mi Calm Calm - 0.06 in Rain Light Rain
9:53 PM 45.0 °F 43.5 °F 42.1 °F 90% 29.99 in 4.0 mi NW 3.5 mph - 0.07 in Rain Light Rain
10:00 PM 44.6 °F 43.1 °F 42.8 °F 93% 30.03 in 3.0 mi NW 3.5 mph - 0.01 in Rain Light Rain
10:12 PM 44.6 °F 43.1 °F 42.8 °F 93% 30.03 in 4.0 mi NW 3.5 mph - 0.02 in Rain Light Rain
10:35 PM 44.6 °F 43.1 °F 42.8 °F 93% 30.03 in 4.0 mi West 3.5 mph - 0.04 in Rain Light Rain
10:44 PM 44.6 °F 42.2 °F 42.8 °F 93% 30.03 in 5.0 mi West 4.6 mph - 0.04 in Rain Light Rain
10:53 PM 45.0 °F 41.8 °F 43.0 °F 93% 29.99 in 5.0 mi West 5.8 mph - 0.05 in Rain Light Rain
11:51 PM 44.6 °F 39.7 °F 39.2 °F 81% 30.04 in 5.0 mi NW 9.2 mph - 0.03 in Rain Light Rain
11:53 PM 44.1 °F 39.0 °F 41.0 °F 89% 30.00 in 4.0 mi NW 9.2 mph - 0.03 in Rain Light Rain